Time,TemperatureF,DewpointF,PressureIn,WindDirection,WindDirectionDegrees,WindSpeedMPH,WindSpeedGustMPH,Humidity,HourlyPrecipIn,Conditions,Clouds,dailyrainin,SoftwareType,DateUTC
2013-07-23 00:03:00,83.5,79.2,30.01,SSE,159,13.0,17.0,87,0.00,,---,0.00,VWS V14.01,2013-07-23 05:03:00,
2013-07-23 00:08:00,83.4,78.8,30.01,SSE,159,9.0,17.0,86,0.00,,---,0.00,VWS V14.01,2013-07-23 05:08:00,
2013-07-23 00:13:00,83.4,78.8,30.02,SSE,157,9.0,17.0,86,0.00,,---,0.00,VWS V14.01,2013-07-23 05:13:00,
2013-07-23 00:18:00,83.5,78.9,30.02,South,174,7.0,17.0,86,0.00,,---,0.00,VWS V14.01,2013-07-23 05:18:00,
2013-07-23 00:23:00,83.5,78.9,30.02,SW,225,12.0,17.0,86,0.00,,---,0.00,VWS V14.01,2013-07-23 05:23:00,
2013-07-23 00:29:00,83.5,78.9,30.02,SSE,162,6.0,17.0,86,0.00,,---,0.00,VWS V14.01,2013-07-23 05:29:00,
2013-07-23 00:34:00,83.5,78.5,30.02,SSE,147,9.0,18.0,85,0.00,,---,0.00,VWS V14.01,2013-07-23 05:34:00,
2013-07-23 00:39:00,83.6,79.0,30.02,South,186,6.0,18.0,86,0.00,,---,0.00,VWS V14.01,2013-07-23 05:39:00,
2013-07-23 00:44:00,83.6,79.0,30.02,South,187,9.0,18.0,86,0.00,,---,0.00,VWS V14.01,2013-07-23 05:44:00,
2013-07-23 00:49:00,83.5,78.9,30.02,SE,134,8.0,18.0,86,0.00,,---,0.00,VWS V14.01,2013-07-23 05:49:00,
2013-07-23 00:54:00,83.4,78.8,30.02,SSE,150,7.0,18.0,86,0.00,,---,0.00,VWS V14.01,2013-07-23 05:54:00,
2013-07-23 00:59:00,83.4,79.1,30.02,SE,143,11.0,18.0,87,0.00,,---,0.00,VWS V14.01,2013-07-23 05:59:00,
2013-07-23 01:05:00,83.5,79.2,30.01,South,191,10.0,13.0,87,0.00,,---,0.00,VWS V14.01,2013-07-23 06:05:00,
2013-07-23 01:09:00,83.3,78.7,30.01,South,170,11.0,15.0,86,0.00,,---,0.00,VWS V14.01,2013-07-23 06:09:00,
2013-07-23 01:14:00,83.3,78.7,30.01,SSE,155,9.0,17.0,86,0.00,,---,0.00,VWS V14.01,2013-07-23 06:14:00,
2013-07-23 01:20:00,83.3,78.7,30.01,South,173,10.0,17.0,86,0.00,,---,0.00,VWS V14.01,2013-07-23 06:20:00,
2013-07-23 01:25:00,83.3,79.0,30.01,South,176,10.0,17.0,87,0.00,,---,0.00,VWS V14.01,2013-07-23 06:25:00,
2013-07-23 01:30:00,83.2,78.9,30.01,SSW,197,7.0,17.0,87,0.00,,---,0.00,VWS V14.01,2013-07-23 06:30:00,
2013-07-23 01:35:00,83.2,78.9,30.01,SSW,197,12.0,17.0,87,0.00,,---,0.00,VWS V14.01,2013-07-23 06:35:00,
2013-07-23 01:40:00,83.2,78.9,30.01,SSE,163,5.0,17.0,87,0.00,,---,0.00,VWS V14.01,2013-07-23 06:40:00,
2013-07-23 01:45:00,83.2,78.9,30.01,SSE,150,13.0,17.0,87,0.00,,---,0.00,VWS V14.01,2013-07-23 06:45:00,
2013-07-23 01:50:00,83.2,78.9,30.00,SSE,156,5.0,17.0,87,0.00,,---,0.00,VWS V14.01,2013-07-23 06:50:00,
2013-07-23 01:55:00,83.1,78.8,30.00,South,175,5.0,17.0,87,0.00,,---,0.00,VWS V14.01,2013-07-23 06:55:00,
2013-07-23 02:00:00,83.1,78.8,30.00,SE,129,10.0,17.0,87,0.00,,---,0.00,VWS V14.01,2013-07-23 07:00:00,
2013-07-23 02:05:00,83.0,78.7,30.00,SSE,159,9.0,15.0,87,0.00,,---,0.00,VWS V14.01,2013-07-23 07:05:00,
2013-07-23 02:10:00,83.0,78.7,30.00,SSE,155,15.0,15.0,87,0.00,,---,0.00,VWS V14.01,2013-07-23 07:10:00,
2013-07-23 02:15:00,83.1,78.8,30.00,SE,131,10.0,16.0,87,0.00,,---,0.00,VWS V14.01,2013-07-23 07:15:00,
2013-07-23 02:20:00,83.1,78.8,30.00,South,169,12.0,16.0,87,0.00,,---,0.00,VWS V14.01,2013-07-23 07:20:00,
2013-07-23 02:25:00,83.1,78.8,30.00,SSE,167,8.0,16.0,87,0.00,,---,0.00,VWS V14.01,2013-07-23 07:25:00,
2013-07-23 02:30:00,83.0,78.4,30.00,SSE,150,11.0,16.0,86,0.00,,---,0.00,VWS V14.01,2013-07-23 07:30:00,
2013-07-23 02:36:00,82.9,78.3,29.99,SE,127,9.0,16.0,86,0.00,,---,0.00,VWS V14.01,2013-07-23 07:36:00,
2013-07-23 02:40:00,83.0,78.4,29.99,SSW,195,7.0,16.0,86,0.00,,---,0.00,VWS V14.01,2013-07-23 07:40:00,
2013-07-23 02:45:00,82.9,78.3,29.99,SSE,148,12.0,16.0,86,0.00,,---,0.00,VWS V14.01,2013-07-23 07:45:00,
2013-07-23 02:50:00,82.9,78.6,29.99,SE,137,6.0,16.0,87,0.00,,---,0.00,VWS V14.01,2013-07-23 07:50:00,
2013-07-23 02:56:00,82.8,78.5,29.99,SSE,152,7.0,16.0,87,0.00,,---,0.00,VWS V14.01,2013-07-23 07:56:00,
2013-07-23 03:01:00,82.8,78.5,29.99,SSW,193,9.0,16.0,87,0.00,,---,0.00,VWS V14.01,2013-07-23 08:01:00,
2013-07-23 03:06:00,82.8,78.5,29.99,SSE,150,5.0,14.0,87,0.00,,---,0.00,VWS V14.01,2013-07-23 08:06:00,
2013-07-23 03:11:00,82.8,78.2,29.99,SSE,150,14.0,16.0,86,0.00,,---,0.00,VWS V14.01,2013-07-23 08:11:00,
2013-07-23 03:16:00,82.8,78.2,29.99,SW,219,10.0,16.0,86,0.00,,---,0.00,VWS V14.01,2013-07-23 08:16:00,
2013-07-23 03:21:00,82.7,77.4,29.99,SE,143,12.0,16.0,84,0.00,,---,0.00,VWS V14.01,2013-07-23 08:21:00,
2013-07-23 03:27:00,82.8,77.5,29.99,SSE,148,13.0,16.0,84,0.00,,---,0.00,VWS V14.01,2013-07-23 08:27:00,
2013-07-23 03:32:00,82.8,77.5,29.98,SSE,165,15.0,17.0,84,0.00,,---,0.00,VWS V14.01,2013-07-23 08:32:00,
2013-07-23 03:37:00,82.9,77.6,29.98,South,169,13.0,17.0,84,0.00,,---,0.00,VWS V14.01,2013-07-23 08:37:00,
2013-07-23 03:42:00,82.9,77.9,29.98,South,180,10.0,17.0,85,0.00,,---,0.00,VWS V14.01,2013-07-23 08:42:00,
2013-07-23 03:47:00,82.8,77.8,29.99,SSW,195,7.0,17.0,85,0.00,,---,0.00,VWS V14.01,2013-07-23 08:47:00,
2013-07-23 03:52:00,82.8,77.8,29.99,South,190,12.0,17.0,85,0.00,,---,0.00,VWS V14.01,2013-07-23 08:52:00,
2013-07-23 03:57:00,82.9,77.9,29.99,SSE,163,12.0,17.0,85,0.00,,---,0.00,VWS V14.01,2013-07-23 08:57:00,
2013-07-23 04:02:00,82.9,77.9,29.99,South,181,5.0,9.0,85,0.00,,---,0.00,VWS V14.01,2013-07-23 09:02:00,
2013-07-23 04:07:00,82.8,77.8,29.99,SSE,150,12.0,12.0,85,0.00,,---,0.00,VWS V14.01,2013-07-23 09:07:00,
2013-07-23 04:13:00,82.9,78.3,29.99,SSW,198,7.0,12.0,86,0.00,,---,0.00,VWS V14.01,2013-07-23 09:13:00,
2013-07-23 04:18:00,82.8,77.8,29.99,SSE,163,8.0,14.0,85,0.00,,---,0.00,VWS V14.01,2013-07-23 09:18:00,
2013-07-23 04:23:00,82.8,77.8,29.99,SSE,163,6.0,16.0,85,0.00,,---,0.00,VWS V14.01,2013-07-23 09:23:00,
2013-07-23 04:28:00,82.7,77.7,30.00,SSE,165,4.0,16.0,85,0.00,,---,0.00,VWS V14.01,2013-07-23 09:28:00,
2013-07-23 04:33:00,82.6,77.6,30.00,South,175,12.0,16.0,85,0.00,,---,0.00,VWS V14.01,2013-07-23 09:33:00,
2013-07-23 04:38:00,82.5,76.8,30.00,WSW,245,8.0,16.0,83,0.00,,---,0.00,VWS V14.01,2013-07-23 09:38:00,
2013-07-23 04:43:00,82.6,76.6,30.00,South,181,8.0,16.0,82,0.00,,---,0.00,VWS V14.01,2013-07-23 09:43:00,
2013-07-23 04:48:00,82.7,77.0,30.00,SSE,150,7.0,16.0,83,0.00,,---,0.00,VWS V14.01,2013-07-23 09:48:00,
2013-07-23 04:53:00,82.6,76.9,30.00,SSW,199,9.0,16.0,83,0.00,,---,0.00,VWS V14.01,2013-07-23 09:53:00,
2013-07-23 04:58:00,82.6,76.9,30.00,SE,141,8.0,17.0,83,0.00,,---,0.00,VWS V14.01,2013-07-23 09:58:00,
2013-07-23 05:03:00,82.7,77.0,30.00,SSW,194,9.0,9.0,83,0.00,,---,0.00,VWS V14.01,2013-07-23 10:03:00,
2013-07-23 05:08:00,82.7,77.0,30.00,South,171,4.0,12.0,83,0.00,,---,0.00,VWS V14.01,2013-07-23 10:08:00,
2013-07-23 05:13:00,82.8,77.5,30.00,SSE,155,10.0,16.0,84,0.00,,---,0.00,VWS V14.01,2013-07-23 10:13:00,
2013-07-23 05:18:00,82.8,77.5,30.00,SSW,212,9.0,16.0,84,0.00,,---,0.00,VWS V14.01,2013-07-23 10:18:00,
2013-07-23 05:23:00,82.7,77.0,30.00,SSW,210,12.0,16.0,83,0.00,,---,0.00,VWS V14.01,2013-07-23 10:23:00,
2013-07-23 05:28:00,82.6,76.6,30.00,SSE,159,12.0,16.0,82,0.00,,---,0.00,VWS V14.01,2013-07-23 10:28:00,
2013-07-23 05:33:00,82.7,77.0,30.00,SSW,204,7.0,16.0,83,0.00,,---,0.00,VWS V14.01,2013-07-23 10:33:00,
2013-07-23 05:38:00,82.7,77.0,30.00,South,179,7.0,16.0,83,0.00,,---,0.00,VWS V14.01,2013-07-23 10:38:00,
2013-07-23 05:43:00,82.8,77.1,30.00,South,179,11.0,16.0,83,0.00,,---,0.00,VWS V14.01,2013-07-23 10:43:00,
2013-07-23 05:48:00,82.7,76.7,30.00,SSE,157,15.0,16.0,82,0.00,,---,0.00,VWS V14.01,2013-07-23 10:48:00,
2013-07-23 05:54:00,82.8,77.1,30.00,South,181,10.0,16.0,83,0.00,,---,0.00,VWS V14.01,2013-07-23 10:54:00,
2013-07-23 05:59:00,82.7,77.0,30.00,South,180,8.0,16.0,83,0.00,,---,0.00,VWS V14.01,2013-07-23 10:59:00,
2013-07-23 06:04:00,82.7,77.0,30.01,SSE,148,7.0,15.0,83,0.00,,---,0.00,VWS V14.01,2013-07-23 11:04:00,
2013-07-23 06:09:00,82.7,76.7,30.01,SW,222,4.0,15.0,82,0.00,,---,0.00,VWS V14.01,2013-07-23 11:09:00,
2013-07-23 06:14:00,82.7,76.7,30.01,South,179,10.0,15.0,82,0.00,,---,0.00,VWS V14.01,2013-07-23 11:14:00,
2013-07-23 06:19:00,82.8,77.1,30.01,SSW,197,11.0,15.0,83,0.00,,---,0.00,VWS V14.01,2013-07-23 11:19:00,
2013-07-23 06:24:00,82.7,76.7,30.01,SSE,165,6.0,15.0,82,0.00,,---,0.00,VWS V14.01,2013-07-23 11:24:00,
2013-07-23 06:29:00,82.6,76.2,30.01,South,190,6.0,15.0,81,0.00,,---,0.00,VWS V14.01,2013-07-23 11:29:00,
2013-07-23 06:34:00,82.7,76.7,30.01,South,185,5.0,15.0,82,0.00,,---,0.00,VWS V14.01,2013-07-23 11:34:00,
2013-07-23 06:39:00,82.7,76.7,30.01,SSW,195,7.0,15.0,82,0.00,,---,0.00,VWS V14.01,2013-07-23 11:39:00,
2013-07-23 06:44:00,82.6,76.6,30.01,SSW,203,6.0,15.0,82,0.00,,---,0.00,VWS V14.01,2013-07-23 11:44:00,
2013-07-23 06:49:00,82.7,76.7,30.01,SE,143,8.0,15.0,82,0.00,,---,0.00,VWS V14.01,2013-07-23 11:49:00,
2013-07-23 06:55:00,82.7,76.7,30.01,SSE,159,10.0,16.0,82,0.00,,---,0.00,VWS V14.01,2013-07-23 11:55:00,
2013-07-23 07:00:00,82.7,76.7,30.01,SSE,167,12.0,16.0,82,0.00,,---,0.00,VWS V14.01,2013-07-23 12:00:00,
2013-07-23 07:05:00,82.8,76.8,30.01,South,176,13.0,16.0,82,0.00,,---,0.00,VWS V14.01,2013-07-23 12:05:00,
2013-07-23 07:10:00,82.8,76.4,30.01,SSW,194,9.0,16.0,81,0.00,,---,0.00,VWS V14.01,2013-07-23 12:10:00,
2013-07-23 07:15:00,82.9,76.8,30.01,SSE,152,6.0,16.0,82,0.00,,---,0.00,VWS V14.01,2013-07-23 12:15:00,
2013-07-23 07:20:00,83.0,76.9,30.01,SSE,158,8.0,16.0,82,0.00,,---,0.00,VWS V14.01,2013-07-23 12:20:00,
2013-07-23 07:25:00,83.0,76.6,30.02,South,186,4.0,16.0,81,0.00,,---,0.00,VWS V14.01,2013-07-23 12:25:00,
2013-07-23 07:30:00,83.2,76.8,30.02,WSW,242,9.0,16.0,81,0.00,,---,0.00,VWS V14.01,2013-07-23 12:30:00,
2013-07-23 07:35:00,83.3,76.9,30.02,SSW,212,8.0,16.0,81,0.00,,---,0.00,VWS V14.01,2013-07-23 12:35:00,
2013-07-23 07:41:00,83.6,76.8,30.02,SSE,163,17.0,17.0,80,0.00,,---,0.00,VWS V14.01,2013-07-23 12:41:00,
2013-07-23 07:46:00,83.6,76.4,30.02,South,180,7.0,17.0,79,0.00,,---,0.00,VWS V14.01,2013-07-23 12:46:00,
2013-07-23 07:51:00,83.6,76.4,30.02,SSE,160,8.0,17.0,79,0.00,,---,0.00,VWS V14.01,2013-07-23 12:51:00,
2013-07-23 07:56:00,83.6,76.8,30.03,SSE,153,9.0,17.0,80,0.00,,---,0.00,VWS V14.01,2013-07-23 12:56:00,
2013-07-23 08:01:00,84.0,77.5,30.03,South,182,6.0,8.0,81,0.00,,---,0.00,VWS V14.01,2013-07-23 13:01:00,
2013-07-23 08:06:00,84.1,77.3,30.03,SSW,199,7.0,11.0,80,0.00,,---,0.00,VWS V14.01,2013-07-23 13:06:00,
2013-07-23 08:11:00,84.1,77.3,30.03,SSW,207,9.0,11.0,80,0.00,,---,0.00,VWS V14.01,2013-07-23 13:11:00,
2013-07-23 08:16:00,84.1,77.3,30.03,South,169,11.0,14.0,80,0.00,,---,0.00,VWS V14.01,2013-07-23 13:16:00,
2013-07-23 08:21:00,84.5,77.3,30.03,South,179,6.0,15.0,79,0.00,,---,0.00,VWS V14.01,2013-07-23 13:21:00,
2013-07-23 08:26:00,84.7,76.7,30.03,SSE,150,8.0,17.0,77,0.00,,---,0.00,VWS V14.01,2013-07-23 13:26:00,
2013-07-23 08:31:00,84.8,76.8,30.03,SSE,165,12.0,17.0,77,0.00,,---,0.00,VWS V14.01,2013-07-23 13:31:00,
2013-07-23 08:36:00,84.5,76.5,30.03,SSW,212,7.0,17.0,77,0.00,,---,0.00,VWS V14.01,2013-07-23 13:36:00,
2013-07-23 08:41:00,84.7,77.1,30.03,SSE,163,6.0,17.0,78,0.00,,---,0.00,VWS V14.01,2013-07-23 13:41:00,
2013-07-23 08:46:00,84.7,76.7,30.03,South,169,11.0,17.0,77,0.00,,---,0.00,VWS V14.01,2013-07-23 13:46:00,
2013-07-23 08:51:00,84.7,77.5,30.03,South,179,11.0,17.0,79,0.00,,---,0.00,VWS V14.01,2013-07-23 13:51:00,
2013-07-23 08:56:00,84.9,76.9,30.03,South,188,10.0,17.0,77,0.00,,---,0.00,VWS V14.01,2013-07-23 13:56:00,
2013-07-23 09:01:00,85.2,77.2,30.03,South,186,7.0,8.0,77,0.00,,---,0.00,VWS V14.01,2013-07-23 14:01:00,
2013-07-23 09:06:00,85.1,77.5,30.03,SE,145,8.0,16.0,78,0.00,,---,0.00,VWS V14.01,2013-07-23 14:06:00,
2013-07-23 09:12:00,85.4,77.4,30.03,South,188,12.0,19.0,77,0.00,,---,0.00,VWS V14.01,2013-07-23 14:12:00,
2013-07-23 09:17:00,85.3,76.9,30.03,SSW,205,11.0,19.0,76,0.00,,---,0.00,VWS V14.01,2013-07-23 14:17:00,
2013-07-23 09:22:00,85.5,77.9,30.03,South,188,8.0,19.0,78,0.00,,---,0.00,VWS V14.01,2013-07-23 14:22:00,
2013-07-23 09:27:00,85.6,77.6,30.03,South,180,14.0,19.0,77,0.00,,---,0.00,VWS V14.01,2013-07-23 14:27:00,
2013-07-23 09:32:00,85.7,76.9,30.03,SSE,158,15.0,19.0,75,0.00,,---,0.00,VWS V14.01,2013-07-23 14:32:00,
2013-07-23 09:37:00,85.9,77.5,30.04,SW,217,5.0,19.0,76,0.00,,---,0.00,VWS V14.01,2013-07-23 14:37:00,
2013-07-23 09:42:00,86.0,77.2,30.04,SSE,153,13.0,19.0,75,0.00,,---,0.00,VWS V14.01,2013-07-23 14:42:00,
2013-07-23 09:47:00,85.9,76.7,30.03,South,179,7.0,19.0,74,0.00,,---,0.00,VWS V14.01,2013-07-23 14:47:00,
2013-07-23 09:52:00,86.1,76.4,30.03,South,177,9.0,19.0,73,0.00,,---,0.00,VWS V14.01,2013-07-23 14:52:00,
2013-07-23 09:57:00,86.4,77.5,30.03,SSE,162,12.0,19.0,75,0.00,,---,0.00,VWS V14.01,2013-07-23 14:57:00,
2013-07-23 10:02:00,86.0,77.2,30.03,SW,218,12.0,12.0,75,0.00,,---,0.00,VWS V14.01,2013-07-23 15:02:00,
2013-07-23 10:07:00,86.0,77.9,30.03,South,171,4.0,12.0,77,0.00,,---,0.00,VWS V14.01,2013-07-23 15:07:00,
2013-07-23 10:12:00,86.1,78.1,30.03,SSE,158,10.0,12.0,77,0.00,,---,0.00,VWS V14.01,2013-07-23 15:12:00,
2013-07-23 10:17:00,86.3,77.8,30.04,SSW,205,14.0,14.0,76,0.00,,---,0.00,VWS V14.01,2013-07-23 15:17:00,
2013-07-23 10:22:00,86.3,77.8,30.04,SW,231,12.0,15.0,76,0.00,,---,0.00,VWS V14.01,2013-07-23 15:22:00,
2013-07-23 10:27:00,86.6,77.7,30.04,South,187,8.0,15.0,75,0.00,,---,0.00,VWS V14.01,2013-07-23 15:27:00,
2013-07-23 10:32:00,86.5,77.2,30.04,SSE,153,11.0,16.0,74,0.00,,---,0.00,VWS V14.01,2013-07-23 15:32:00,
2013-07-23 10:37:00,86.7,77.0,30.04,SW,218,8.0,16.0,73,0.00,,---,0.00,VWS V14.01,2013-07-23 15:37:00,
2013-07-23 10:42:00,86.5,77.6,30.04,SSW,194,10.0,16.0,75,0.00,,---,0.00,VWS V14.01,2013-07-23 15:42:00,
2013-07-23 10:47:00,86.4,77.5,30.04,SW,225,15.0,16.0,75,0.00,,---,0.00,VWS V14.01,2013-07-23 15:47:00,
2013-07-23 10:52:00,86.6,77.3,30.04,SSW,212,10.0,16.0,74,0.00,,---,0.00,VWS V14.01,2013-07-23 15:52:00,
2013-07-23 10:57:00,86.8,77.1,30.05,SSE,167,9.0,16.0,73,0.00,,---,0.00,VWS V14.01,2013-07-23 15:57:00,
2013-07-23 11:02:00,86.9,78.0,30.04,SSE,152,2.0,10.0,75,0.00,,---,0.00,VWS V14.01,2013-07-23 16:02:00,
2013-07-23 11:07:00,86.9,77.6,30.04,West,276,4.0,14.0,74,0.00,,---,0.00,VWS V14.01,2013-07-23 16:07:00,
2013-07-23 11:12:00,87.1,77.8,30.04,SSW,198,10.0,14.0,74,0.00,,---,0.00,VWS V14.01,2013-07-23 16:12:00,
2013-07-23 11:17:00,86.9,77.6,30.04,South,169,9.0,14.0,74,0.00,,---,0.00,VWS V14.01,2013-07-23 16:17:00,
2013-07-23 11:22:00,87.0,77.7,30.04,SW,214,9.0,15.0,74,0.00,,---,0.00,VWS V14.01,2013-07-23 16:22:00,
2013-07-23 11:27:00,86.9,77.2,30.04,SW,221,4.0,15.0,73,0.00,,---,0.00,VWS V14.01,2013-07-23 16:27:00,
2013-07-23 11:32:00,87.2,77.9,30.05,SSW,193,8.0,16.0,74,0.00,,---,0.00,VWS V14.01,2013-07-23 16:32:00,
2013-07-23 11:37:00,87.4,77.3,30.05,SSE,163,8.0,16.0,72,0.00,,---,0.00,VWS V14.01,2013-07-23 16:37:00,
2013-07-23 11:42:00,87.4,78.1,30.05,South,171,16.0,16.0,74,0.00,,---,0.00,VWS V14.01,2013-07-23 16:42:00,
2013-07-23 11:47:00,87.5,78.2,30.05,SE,136,3.0,16.0,74,0.00,,---,0.00,VWS V14.01,2013-07-23 16:47:00,
2013-07-23 11:52:00,87.8,78.1,30.05,SW,228,14.0,16.0,73,0.00,,---,0.00,VWS V14.01,2013-07-23 16:52:00,
2013-07-23 11:57:00,87.6,77.9,30.05,SSW,197,5.0,16.0,73,0.00,,---,0.00,VWS V14.01,2013-07-23 16:57:00,
2013-07-23 12:02:00,87.7,78.0,30.05,South,183,12.0,15.0,73,0.00,,---,0.00,VWS V14.01,2013-07-23 17:02:00,
2013-07-23 12:07:00,87.7,78.0,30.05,South,181,9.0,15.0,73,0.00,,---,0.00,VWS V14.01,2013-07-23 17:07:00,
2013-07-23 12:12:00,88.1,77.9,30.05,SSE,163,7.0,16.0,72,0.00,,---,0.00,VWS V14.01,2013-07-23 17:12:00,
2013-07-23 12:17:00,88.2,77.2,30.05,SSW,204,13.0,16.0,70,0.00,,---,0.00,VWS V14.01,2013-07-23 17:17:00,
2013-07-23 12:22:00,88.3,77.3,30.05,SSW,195,4.0,16.0,70,0.00,,---,0.00,VWS V14.01,2013-07-23 17:22:00,
2013-07-23 12:28:00,88.4,77.4,30.04,SSE,152,8.0,16.0,70,0.00,,---,0.00,VWS V14.01,2013-07-23 17:28:00,
2013-07-23 12:33:00,88.4,78.2,30.04,South,171,6.0,16.0,72,0.00,,---,0.00,VWS V14.01,2013-07-23 17:33:00,
2013-07-23 12:38:00,88.2,78.4,30.04,South,191,7.0,16.0,73,0.00,,---,0.00,VWS V14.01,2013-07-23 17:38:00,
2013-07-23 12:42:00,88.2,78.9,30.05,South,180,10.0,16.0,74,0.00,,---,0.00,VWS V14.01,2013-07-23 17:42:00,
2013-07-23 12:47:00,87.6,78.3,30.04,South,174,4.0,16.0,74,0.00,,---,0.00,VWS V14.01,2013-07-23 17:47:00,
2013-07-23 12:52:00,87.7,77.6,30.04,SSE,162,8.0,16.0,72,0.00,,---,0.00,VWS V14.01,2013-07-23 17:52:00,
2013-07-23 12:57:00,87.8,78.1,30.04,South,178,6.0,16.0,73,0.00,,---,0.00,VWS V14.01,2013-07-23 17:57:00,
2013-07-23 13:03:00,88.0,77.8,30.04,SSW,201,12.0,16.0,72,0.00,,---,0.00,VWS V14.01,2013-07-23 18:03:00,
2013-07-23 13:08:00,87.9,77.8,30.04,SE,146,9.0,16.0,72,0.00,,---,0.00,VWS V14.01,2013-07-23 18:08:00,
2013-07-23 13:13:00,88.1,77.5,30.04,SE,136,6.0,16.0,71,0.00,,---,0.00,VWS V14.01,2013-07-23 18:13:00,
2013-07-23 13:18:00,88.2,78.0,30.04,WSW,243,8.0,16.0,72,0.00,,---,0.00,VWS V14.01,2013-07-23 18:18:00,
2013-07-23 13:23:00,88.5,77.9,30.04,SSE,153,9.0,16.0,71,0.00,,---,0.00,VWS V14.01,2013-07-23 18:23:00,
2013-07-23 13:28:00,88.3,77.3,30.03,SW,236,17.0,17.0,70,0.00,,---,0.00,VWS V14.01,2013-07-23 18:28:00,
2013-07-23 13:33:00,88.1,77.9,30.03,SSW,209,8.0,17.0,72,0.00,,---,0.00,VWS V14.01,2013-07-23 18:33:00,
2013-07-23 13:38:00,88.0,77.4,30.03,SSE,150,7.0,17.0,71,0.00,,---,0.00,VWS V14.01,2013-07-23 18:38:00,
2013-07-23 13:43:00,88.2,78.4,30.03,South,188,4.0,17.0,73,0.00,,---,0.00,VWS V14.01,2013-07-23 18:43:00,
2013-07-23 13:48:00,88.2,77.6,30.03,South,191,12.0,17.0,71,0.00,,---,0.00,VWS V14.01,2013-07-23 18:48:00,
2013-07-23 13:53:00,88.2,77.6,30.03,SSE,150,6.0,17.0,71,0.00,,---,0.00,VWS V14.01,2013-07-23 18:53:00,
2013-07-23 13:58:00,88.2,77.6,30.03,SSE,167,6.0,17.0,71,0.00,,---,0.00,VWS V14.01,2013-07-23 18:58:00,
2013-07-23 14:03:00,88.1,77.9,30.03,SW,217,9.0,16.0,72,0.00,,---,0.00,VWS V14.01,2013-07-23 19:03:00,
2013-07-23 14:08:00,88.2,78.4,30.02,South,190,13.0,16.0,73,0.00,,---,0.00,VWS V14.01,2013-07-23 19:08:00,
2013-07-23 14:13:00,87.9,78.2,30.03,South,181,7.0,16.0,73,0.00,,---,0.00,VWS V14.01,2013-07-23 19:13:00,
2013-07-23 14:18:00,87.7,77.1,30.02,South,171,7.0,16.0,71,0.00,,---,0.00,VWS V14.01,2013-07-23 19:18:00,
2013-07-23 14:23:00,87.9,77.8,30.02,SSW,210,10.0,16.0,72,0.00,,---,0.00,VWS V14.01,2013-07-23 19:23:00,
2013-07-23 14:28:00,87.9,78.2,30.02,South,190,6.0,16.0,73,0.00,,---,0.00,VWS V14.01,2013-07-23 19:28:00,
2013-07-23 14:34:00,88.0,77.8,30.02,SW,219,8.0,16.0,72,0.00,,---,0.00,VWS V14.01,2013-07-23 19:34:00,
2013-07-23 14:39:00,88.0,77.4,30.02,SSW,205,6.0,16.0,71,0.00,,---,0.00,VWS V14.01,2013-07-23 19:39:00,
2013-07-23 14:44:00,88.0,77.8,30.02,SE,134,7.0,16.0,72,0.00,,---,0.00,VWS V14.01,2013-07-23 19:44:00,
2013-07-23 14:49:00,87.7,78.0,30.02,SSE,153,4.0,16.0,73,0.00,,---,0.00,VWS V14.01,2013-07-23 19:49:00,
2013-07-23 14:54:00,87.9,77.3,30.01,SSW,195,11.0,16.0,71,0.00,,---,0.00,VWS V14.01,2013-07-23 19:54:00,
2013-07-23 14:59:00,88.2,78.0,30.01,SSW,193,9.0,16.0,72,0.00,,---,0.00,VWS V14.01,2013-07-23 19:59:00,
2013-07-23 15:05:00,88.1,77.9,30.01,SSE,162,7.0,14.0,72,0.00,,---,0.00,VWS V14.01,2013-07-23 20:05:00,
2013-07-23 15:09:00,88.1,77.9,30.01,SSW,212,10.0,14.0,72,0.00,,---,0.00,VWS V14.01,2013-07-23 20:09:00,
2013-07-23 15:14:00,88.1,78.4,30.00,ESE,118,4.0,15.0,73,0.00,,---,0.00,VWS V14.01,2013-07-23 20:14:00,
2013-07-23 15:20:00,88.1,77.5,30.00,SE,141,4.0,15.0,71,0.00,,---,0.00,VWS V14.01,2013-07-23 20:20:00,
2013-07-23 15:25:00,88.2,77.2,30.00,South,191,9.0,15.0,70,0.00,,---,0.00,VWS V14.01,2013-07-23 20:25:00,
2013-07-23 15:30:00,87.9,77.8,30.00,South,181,9.0,16.0,72,0.00,,---,0.00,VWS V14.01,2013-07-23 20:30:00,
2013-07-23 15:35:00,88.1,78.4,30.00,WSW,244,9.0,16.0,73,0.00,,---,0.00,VWS V14.01,2013-07-23 20:35:00,
2013-07-23 15:40:00,88.1,78.4,30.00,ESE,117,7.0,16.0,73,0.00,,---,0.00,VWS V14.01,2013-07-23 20:40:00,
2013-07-23 15:45:00,87.9,77.8,30.00,South,175,5.0,16.0,72,0.00,,---,0.00,VWS V14.01,2013-07-23 20:45:00,
2013-07-23 15:50:00,87.8,77.7,29.99,SW,218,6.0,16.0,72,0.00,,---,0.00,VWS V14.01,2013-07-23 20:50:00,
2013-07-23 15:55:00,87.9,78.2,29.99,SSE,167,13.0,16.0,73,0.00,,---,0.00,VWS V14.01,2013-07-23 20:55:00,
2013-07-23 16:00:00,87.9,77.8,29.99,SSE,167,8.0,16.0,72,0.00,,---,0.00,VWS V14.01,2013-07-23 21:00:00,
2013-07-23 16:05:00,87.6,77.5,29.99,South,171,8.0,16.0,72,0.00,,---,0.00,VWS V14.01,2013-07-23 21:05:00,
2013-07-23 16:11:00,87.5,77.4,29.99,SSW,205,11.0,16.0,72,0.00,,---,0.00,VWS V14.01,2013-07-23 21:11:00,
2013-07-23 16:16:00,87.5,77.8,29.99,SE,134,6.0,16.0,73,0.00,,---,0.00,VWS V14.01,2013-07-23 21:16:00,
2013-07-23 16:21:00,87.4,78.1,29.99,SE,130,5.0,16.0,74,0.00,,---,0.00,VWS V14.01,2013-07-23 21:21:00,
2013-07-23 16:26:00,87.2,77.9,29.99,SSE,158,12.0,16.0,74,0.00,,---,0.00,VWS V14.01,2013-07-23 21:26:00,
2013-07-23 16:31:00,86.9,76.8,29.98,SSE,154,13.0,16.0,72,0.00,,---,0.00,VWS V14.01,2013-07-23 21:31:00,
2013-07-23 16:36:00,86.8,77.1,29.98,SSE,148,8.0,17.0,73,0.00,,---,0.00,VWS V14.01,2013-07-23 21:36:00,
2013-07-23 16:41:00,86.8,77.9,29.98,SSW,197,12.0,17.0,75,0.00,,---,0.00,VWS V14.01,2013-07-23 21:41:00,
2013-07-23 16:46:00,86.7,77.8,29.98,SSW,198,7.0,17.0,75,0.00,,---,0.00,VWS V14.01,2013-07-23 21:46:00,
2013-07-23 16:52:00,86.5,77.6,29.98,SE,141,13.0,17.0,75,0.00,,---,0.00,VWS V14.01,2013-07-23 21:52:00,
2013-07-23 16:57:00,86.4,77.5,29.98,SE,141,9.0,17.0,75,0.00,,---,0.00,VWS V14.01,2013-07-23 21:57:00,
2013-07-23 17:02:00,86.3,77.4,29.97,SSE,156,11.0,13.0,75,0.00,,---,0.00,VWS V14.01,2013-07-23 22:02:00,
2013-07-23 17:07:00,86.4,77.9,29.97,SSE,150,4.0,14.0,76,0.00,,---,0.00,VWS V14.01,2013-07-23 22:07:00,
2013-07-23 17:12:00,86.3,77.4,29.97,SSE,152,7.0,16.0,75,0.00,,---,0.00,VWS V14.01,2013-07-23 22:12:00,
2013-07-23 17:17:00,86.3,78.2,29.97,South,175,7.0,16.0,77,0.00,,---,0.00,VWS V14.01,2013-07-23 22:17:00,
2013-07-23 17:22:00,86.2,77.3,29.97,SE,142,11.0,16.0,75,0.00,,---,0.00,VWS V14.01,2013-07-23 22:22:00,
2013-07-23 17:27:00,86.1,77.2,29.97,SSE,150,10.0,16.0,75,0.00,,---,0.00,VWS V14.01,2013-07-23 22:27:00,
2013-07-23 17:33:00,86.1,78.1,29.97,SSE,152,7.0,16.0,77,0.00,,---,0.00,VWS V14.01,2013-07-23 22:33:00,
2013-07-23 17:38:00,86.1,78.1,29.97,SSW,193,2.0,16.0,77,0.00,,---,0.00,VWS V14.01,2013-07-23 22:38:00,
2013-07-23 17:43:00,86.1,78.1,29.97,SSE,152,10.0,16.0,77,0.00,,---,0.00,VWS V14.01,2013-07-23 22:43:00,
2013-07-23 17:48:00,85.9,78.2,29.96,East,101,6.0,16.0,78,0.00,,---,0.00,VWS V14.01,2013-07-23 22:48:00,
2013-07-23 17:53:00,85.9,78.6,29.96,SSE,152,5.0,16.0,79,0.00,,---,0.00,VWS V14.01,2013-07-23 22:53:00,
2013-07-23 17:58:00,85.8,77.8,29.96,SE,138,9.0,16.0,77,0.00,,---,0.00,VWS V14.01,2013-07-23 22:58:00,
2013-07-23 18:03:00,85.7,78.1,29.96,SSE,150,6.0,12.0,78,0.00,,---,0.00,VWS V14.01,2013-07-23 23:03:00,
2013-07-23 18:08:00,85.7,77.7,29.96,SE,145,13.0,14.0,77,0.00,,---,0.00,VWS V14.01,2013-07-23 23:08:00,
2013-07-23 18:13:00,85.6,78.0,29.96,South,181,7.0,14.0,78,0.00,,---,0.00,VWS V14.01,2013-07-23 23:13:00,
2013-07-23 18:18:00,85.6,78.0,29.95,SE,145,9.0,15.0,78,0.00,,---,0.00,VWS V14.01,2013-07-23 23:18:00,
2013-07-23 18:23:00,85.4,77.8,29.95,SSE,157,10.0,15.0,78,0.00,,---,0.00,VWS V14.01,2013-07-23 23:23:00,
2013-07-23 18:29:00,85.4,78.2,29.95,SE,133,8.0,15.0,79,0.00,,---,0.00,VWS V14.01,2013-07-23 23:29:00,
2013-07-23 18:34:00,85.3,78.1,29.95,NNE,13,5.0,15.0,79,0.00,,---,0.00,VWS V14.01,2013-07-23 23:34:00,
2013-07-23 18:39:00,85.2,77.9,29.95,SSE,165,10.0,15.0,79,0.00,,---,0.00,VWS V14.01,2013-07-23 23:39:00,
2013-07-23 18:44:00,85.3,77.7,29.95,SSE,154,10.0,15.0,78,0.00,,---,0.00,VWS V14.01,2013-07-23 23:44:00,
2013-07-23 18:49:00,85.4,77.8,29.95,ESE,122,4.0,15.0,78,0.00,,---,0.00,VWS V14.01,2013-07-23 23:49:00,
2013-07-23 18:54:00,85.2,77.6,29.95,ESE,115,9.0,19.0,78,0.00,,---,0.00,VWS V14.01,2013-07-23 23:54:00,
2013-07-23 18:59:00,85.1,77.9,29.95,SSE,153,9.0,19.0,79,0.00,,---,0.00,VWS V14.01,2013-07-23 23:59:00,
2013-07-23 19:04:00,85.1,77.9,29.95,SSE,160,8.0,13.0,79,0.00,,---,0.00,VWS V14.01,2013-07-24 00:04:00,
2013-07-23 19:09:00,85.0,78.1,29.95,South,173,7.0,14.0,80,0.00,,---,0.00,VWS V14.01,2013-07-24 00:09:00,
2013-07-23 19:14:00,84.8,78.3,29.95,SE,146,7.0,15.0,81,0.00,,---,0.00,VWS V14.01,2013-07-24 00:14:00,
2013-07-23 19:19:00,84.7,78.2,29.95,SSW,201,6.0,15.0,81,0.00,,---,0.00,VWS V14.01,2013-07-24 00:19:00,
2013-07-23 19:24:00,84.6,78.1,29.95,SSE,166,11.0,15.0,81,0.00,,---,0.00,VWS V14.01,2013-07-24 00:24:00,
2013-07-23 19:29:00,84.3,77.8,29.95,ESE,122,8.0,15.0,81,0.00,,---,0.00,VWS V14.01,2013-07-24 00:29:00,
2013-07-23 19:34:00,84.2,78.1,29.95,SSE,161,10.0,15.0,82,0.00,,---,0.00,VWS V14.01,2013-07-24 00:34:00,
2013-07-23 19:39:00,84.0,77.5,29.95,South,176,9.0,15.0,81,0.00,,---,0.00,VWS V14.01,2013-07-24 00:39:00,
2013-07-23 19:44:00,84.0,77.9,29.95,SSE,158,10.0,15.0,82,0.00,,---,0.00,VWS V14.01,2013-07-24 00:44:00,
2013-07-23 19:49:00,83.9,77.8,29.95,ESE,109,11.0,15.0,82,0.00,,---,0.00,VWS V14.01,2013-07-24 00:49:00,
2013-07-23 19:54:00,83.9,77.8,29.95,SE,138,2.0,15.0,82,0.00,,---,0.00,VWS V14.01,2013-07-24 00:54:00,
2013-07-23 19:59:00,83.8,77.7,29.95,SSW,208,5.0,17.0,82,0.00,,---,0.00,VWS V14.01,2013-07-24 00:59:00,
2013-07-23 20:04:00,83.7,77.6,29.95,SE,141,10.0,13.0,82,0.00,,---,0.00,VWS V14.01,2013-07-24 01:04:00,
2013-07-23 20:09:00,83.7,78.0,29.95,SSE,148,11.0,15.0,83,0.00,,---,0.00,VWS V14.01,2013-07-24 01:09:00,
2013-07-23 20:14:00,83.5,77.8,29.95,SSE,156,6.0,15.0,83,0.00,,---,0.00,VWS V14.01,2013-07-24 01:14:00,
2013-07-23 20:19:00,83.5,77.8,29.95,ESE,121,6.0,15.0,83,0.00,,---,0.00,VWS V14.01,2013-07-24 01:19:00,
2013-07-23 20:24:00,83.3,77.6,29.94,SSE,149,4.0,15.0,83,0.00,,---,0.00,VWS V14.01,2013-07-24 01:24:00,
2013-07-23 20:29:00,83.3,77.6,29.94,SSE,148,15.0,15.0,83,0.00,,---,0.00,VWS V14.01,2013-07-24 01:29:00,
2013-07-23 20:35:00,83.3,77.6,29.94,SSE,156,12.0,15.0,83,0.00,,---,0.00,VWS V14.01,2013-07-24 01:35:00,
2013-07-23 20:40:00,83.2,77.5,29.94,SSE,155,5.0,15.0,83,0.00,,---,0.00,VWS V14.01,2013-07-24 01:40:00,
2013-07-23 20:45:00,83.2,77.9,29.94,SE,143,6.0,15.0,84,0.00,,---,0.00,VWS V14.01,2013-07-24 01:45:00,
2013-07-23 20:50:00,83.1,77.4,29.94,SSE,161,10.0,15.0,83,0.00,,---,0.00,VWS V14.01,2013-07-24 01:50:00,
2013-07-23 20:55:00,83.0,77.3,29.94,South,176,8.0,15.0,83,0.00,,---,0.00,VWS V14.01,2013-07-24 01:55:00,
2013-07-23 21:00:00,83.0,77.3,29.94,South,171,8.0,15.0,83,0.00,,---,0.00,VWS V14.01,2013-07-24 02:00:00,
2013-07-23 21:05:00,83.1,77.8,29.95,South,190,8.0,14.0,84,0.00,,---,0.00,VWS V14.01,2013-07-24 02:05:00,
2013-07-23 21:10:00,83.1,77.8,29.95,SSE,149,10.0,16.0,84,0.00,,---,0.00,VWS V14.01,2013-07-24 02:10:00,
2013-07-23 21:15:00,83.1,77.4,29.95,SSE,161,6.0,16.0,83,0.00,,---,0.00,VWS V14.01,2013-07-24 02:15:00,
2013-07-23 21:20:00,83.1,77.8,29.95,South,186,6.0,16.0,84,0.00,,---,0.00,VWS V14.01,2013-07-24 02:20:00,
2013-07-23 21:25:00,82.9,77.6,29.95,SE,134,9.0,16.0,84,0.00,,---,0.00,VWS V14.01,2013-07-24 02:25:00,
2013-07-23 21:30:00,82.9,77.6,29.95,SE,140,10.0,16.0,84,0.00,,---,0.00,VWS V14.01,2013-07-24 02:30:00,
2013-07-23 21:36:00,82.8,77.1,29.95,South,172,8.0,16.0,83,0.00,,---,0.00,VWS V14.01,2013-07-24 02:36:00,
2013-07-23 21:41:00,82.9,77.6,29.95,SSE,168,9.0,17.0,84,0.00,,---,0.00,VWS V14.01,2013-07-24 02:41:00,
2013-07-23 21:46:00,82.9,77.6,29.96,SSE,161,5.0,17.0,84,0.00,,---,0.00,VWS V14.01,2013-07-24 02:46:00,
2013-07-23 21:51:00,82.8,77.1,29.96,South,186,10.0,17.0,83,0.00,,---,0.00,VWS V14.01,2013-07-24 02:51:00,
2013-07-23 21:56:00,82.9,77.6,29.96,SSE,150,6.0,17.0,84,0.00,,---,0.00,VWS V14.01,2013-07-24 02:56:00,
2013-07-23 22:01:00,82.9,77.9,29.96,South,176,10.0,18.0,85,0.00,,---,0.00,VWS V14.01,2013-07-24 03:01:00,
2013-07-23 22:06:00,82.8,77.8,29.96,South,180,11.0,18.0,85,0.00,,---,0.00,VWS V14.01,2013-07-24 03:06:00,
2013-07-23 22:11:00,82.7,77.4,29.97,SE,134,9.0,18.0,84,0.00,,---,0.00,VWS V14.01,2013-07-24 03:11:00,
2013-07-23 22:16:00,82.7,77.0,29.97,SE,127,8.0,18.0,83,0.00,,---,0.00,VWS V14.01,2013-07-24 03:16:00,
2013-07-23 22:21:00,82.7,77.4,29.97,SSE,152,7.0,18.0,84,0.00,,---,0.00,VWS V14.01,2013-07-24 03:21:00,
2013-07-23 22:26:00,82.7,77.4,29.97,SSE,166,3.0,18.0,84,0.00,,---,0.00,VWS V14.01,2013-07-24 03:26:00,
2013-07-23 22:31:00,82.6,77.3,29.97,SSE,155,8.0,18.0,84,0.00,,---,0.00,VWS V14.01,2013-07-24 03:31:00,
2013-07-23 22:36:00,82.6,77.3,29.97,SE,143,13.0,18.0,84,0.00,,---,0.00,VWS V14.01,2013-07-24 03:36:00,
2013-07-23 22:41:00,82.6,77.3,29.97,SSE,153,8.0,18.0,84,0.00,,---,0.00,VWS V14.01,2013-07-24 03:41:00,
2013-07-23 22:46:00,82.6,76.9,29.97,SE,142,9.0,18.0,83,0.00,,---,0.00,VWS V14.01,2013-07-24 03:46:00,
2013-07-23 22:52:00,82.6,76.9,29.97,SSE,150,3.0,18.0,83,0.00,,---,0.00,VWS V14.01,2013-07-24 03:52:00,
2013-07-23 22:57:00,82.6,77.3,29.97,SE,139,8.0,18.0,84,0.00,,---,0.00,VWS V14.01,2013-07-24 03:57:00,
2013-07-23 23:01:00,82.6,77.3,29.97,South,181,13.0,18.0,84,0.00,,---,0.00,VWS V14.01,2013-07-24 04:01:00,
2013-07-23 23:06:00,82.5,77.2,29.97,SSE,155,10.0,13.0,84,0.00,,---,0.00,VWS V14.01,2013-07-24 04:06:00,
2013-07-23 23:11:00,82.5,77.2,29.96,South,190,12.0,13.0,84,0.00,,---,0.00,VWS V14.01,2013-07-24 04:11:00,
2013-07-23 23:16:00,82.5,76.8,29.96,SSE,150,10.0,14.0,83,0.00,,---,0.00,VWS V14.01,2013-07-24 04:16:00,
2013-07-23 23:21:00,82.5,76.8,29.96,SE,136,11.0,15.0,83,0.00,,---,0.00,VWS V14.01,2013-07-24 04:21:00,
2013-07-23 23:26:00,82.6,77.3,29.96,SSE,161,8.0,15.0,84,0.00,,---,0.00,VWS V14.01,2013-07-24 04:26:00,
2013-07-23 23:31:00,82.4,76.7,29.96,South,175,6.0,15.0,83,0.00,,---,0.00,VWS V14.01,2013-07-24 04:31:00,
2013-07-23 23:36:00,82.5,76.8,29.96,South,174,9.0,15.0,83,0.00,,---,0.00,VWS V14.01,2013-07-24 04:36:00,
2013-07-23 23:41:00,82.5,77.2,29.96,SSE,150,10.0,15.0,84,0.00,,---,0.00,VWS V14.01,2013-07-24 04:41:00,
2013-07-23 23:46:00,82.5,77.2,29.97,South,179,9.0,15.0,84,0.00,,---,0.00,VWS V14.01,2013-07-24 04:46:00,
2013-07-23 23:51:00,82.5,77.2,29.97,South,176,6.0,15.0,84,0.00,,---,0.00,VWS V14.01,2013-07-24 04:51:00,
2013-07-23 23:56:00,82.5,77.5,29.97,SSE,160,5.0,15.0,85,0.00,,---,0.00,VWS V14.01,2013-07-24 04:56:00,